Location: Albany
(35.0170°S, 117.8920°E)
Time: 00:51:48
(UTC+08:00)

S-56A Canister/Altair - Pass Details

Date: 19 June 2021
Orbit: 632 x 2501 km, 38.9° (Epoch: 24 July)

Event Time Altitude Azimuth Distance (km) Brightness Sun altitude
Rises 19:53:49 0° 258° (WSW) 6,190 13.1 -33.9°
Reaches altitude 10° 19:58:00 10° 256° (WSW) 5,134 12.4 -34.7°
Maximum altitude 20:12:49 81° 168° (SSE) 2,111 9.4 -37.7°
Enters shadow 20:13:46 77° 120° (ESE) 2,094 9.3 -37.9°
